Total_Precipitation_Accumulation
0.00 0.00 0.00 0.00 0.00 0.00 0.00 0.00 0.01 0.01 0.01 0.03 0.04 0.02 0.01 0.00 0.00 0.00 0.00 0.00 0.00 0.00 0.00 0.00 0.00 0.01 0.01 0.00 0.00 0.00 0.00 0.00 0.00 0.00 0.00 0.00 0.00 0.01 0.01 0.02 0.08 0.11 0.02
0.00 0.00 0.00 0.00 0.00 0.00 0.00 0.00 0.00 0.00 0.00 0.01 0.01 0.01 0.00 0.00 0.00 0.00 0.00 0.00 0.00 0.00 0.00 0.00 0.00 0.00 0.00 0.00 0.00 0.00 0.00 0.00 0.00 0.00 0.00 0.00 0.00 0.00 0.00 0.01 0.05 0.07 0.01
0.00 0.00 0.00 0.00 0.00 0.00 0.00 0.00 0.00 0.00 0.00 0.00 0.00 0.00 0.00 0.00 0.00 0.00 0.00 0.00 0.00 0.00 0.00 0.00 0.00 0.00 0.00 0.00 0.00 0.00 0.00 0.00 0.00 0.00 0.00 0.00 0.00 0.00 0.00 0.00 0.00 0.00 0.00
0.00 0.00 0.00 0.00 0.00 0.00 0.00 0.00 0.00 0.00 0.00 0.00 0.00 0.00 0.00 0.01 0.01 0.00 0.00 0.00 0.00 0.00 0.00 0.00 0.00 0.00 0.00 0.00 0.00 0.00 0.00 0.00 0.00 0.00 0.01 0.04 0.02 0.00 0.00 0.00 0.00 0.00 0.00
0.00 0.00 0.00 0.00 0.00 0.00 0.01 0.00 0.00 0.00 0.01 0.00 0.00 0.00 0.01 0.01 0.02 0.01 0.01 0.00 0.00 0.00 0.00 0.00 0.00 0.00 0.00 0.00 0.01 0.00 0.00 0.00 0.00 0.00 0.01 0.04 0.05 0.03 0.01 0.01 0.00 0.00 0.00
0.00 0.00 0.00 0.00 0.00 0.00 0.01 0.01 0.01 0.01 0.01 0.01 0.00 0.00 0.01 0.02 0.02 0.02 0.01 0.00 0.00 0.00 0.00 0.01 0.00 0.00 0.00 0.00 0.01 0.01 0.01 0.00 0.01 0.00 0.00 0.02 0.08 0.08 0.04 0.06 0.05 0.03 0.02
0.00 0.00 0.00 0.00 0.00 0.00 0.00 0.00 0.01 0.01 0.01 0.01 0.00 0.00 0.01 0.01 0.01 0.01 0.00 0.00 0.01 0.00 0.00 0.01 0.01 0.01 0.01 0.00 0.00 0.00 0.01 0.01 0.01 0.02 0.02 0.04 0.09 0.09 0.10 0.17 0.22 0.18 0.11
0.00 0.00 0.01 0.00 0.00 0.00 0.00 0.00 0.00 0.01 0.01 0.01 0.00 0.00 0.01 0.00 0.01 0.01 0.01 0.01 0.01 0.02 0.01 0.01 0.01 0.01 0.01 0.01 0.02 0.02 0.01 0.01 0.00 0.00 0.01 0.03 0.06 0.06 0.14 0.25 0.35 0.38 0.31
0.00 0.00 0.01 0.00 0.00 0.00 0.00 0.00 0.01 0.01 0.01 0.01 0.01 0.01 0.01 0.01 0.01 0.01 0.02 0.03 0.03 0.03 0.04 0.02 0.01 0.01 0.02 0.02 0.02 0.04 0.03 0.02 0.01 0.01 0.00 0.01 0.03 0.06 0.16 0.23 0.29 0.40 0.43
0.00 0.00 0.00 0.00 0.00 0.00 0.00 0.00 0.00 0.01 0.01 0.01 0.01 0.01 0.01 0.00 0.01 0.01 0.03 0.05 0.06 0.08 0.08 0.06 0.03 0.04 0.05 0.05 0.03 0.03 0.04 0.04 0.02 0.01 0.02 0.01 0.03 0.09 0.18 0.19 0.24 0.35 0.43
0.00 0.00 0.00 0.00 0.00 0.00 0.00 0.00 0.01 0.01 0.01 0.01 0.02 0.01 0.01 0.02 0.05 0.13 0.11 0.16 0.14 0.15 0.13 0.11 0.09 0.12 0.14 0.08 0.07 0.11 0.09 0.03 0.01 0.01 0.01 0.01 0.04 0.12 0.21 0.19 0.20 0.27 0.34
0.00 0.01 0.01 0.01 0.01 0.00 0.00 0.00 0.00 0.01 0.05 0.04 0.09 0.15 0.18 0.24 0.20 0.09 0.15 0.28 0.31 0.27 0.22 0.23 0.29 0.29 0.23 0.18 0.36 0.52 0.16 0.05 0.05 0.03 0.04 0.12 0.20 0.26 0.33 0.29 0.27 0.27 0.29
0.01 0.01 0.02 0.02 0.02 0.01 0.01 0.00 0.02 0.07 0.22 0.19 0.17 0.26 0.37 0.32 0.19 0.09 0.12 0.24 0.39 0.34 0.29 0.40 0.54 0.41 0.37 0.44 0.52 0.62 0.31 0.17 0.10 0.10 0.13 0.26 0.32 0.43 0.53 0.45 0.37 0.36 0.36
0.03 0.04 0.05 0.04 0.04 0.04 0.04 0.04 0.04 0.10 0.18 0.20 0.21 0.18 0.33 0.32 0.21 0.16 0.17 0.17 0.28 0.38 0.52 0.57 0.66 0.60 0.58 0.52 0.53 0.43 0.41 0.43 0.33 0.35 0.44 0.42 0.39 0.45 0.60 0.62 0.51 0.43 0.38
0.09 0.10 0.15 0.16 0.15 0.16 0.18 0.17 0.10 0.10 0.11 0.11 0.14 0.16 0.26 0.34 0.30 0.31 0.31 0.28 0.26 0.43 0.64 0.77 0.65 0.76 0.84 0.64 0.45 0.37 0.38 0.51 0.69 0.76 0.66 0.67 0.58 0.51 0.61 0.72 0.59 0.47 0.41
0.18 0.22 0.34 0.41 0.40 0.41 0.46 0.40 0.28 0.22 0.22 0.24 0.26 0.32 0.42 0.47 0.51 0.54 0.52 0.50 0.48 0.58 0.74 0.85 0.83 0.94 0.83 0.76 0.47 0.44 0.47 0.53 0.66 0.70 0.62 0.75 0.66 0.51 0.51 0.60 0.59 0.52 0.43
0.32 0.48 0.76 0.87 0.87 0.85 0.82 0.70 0.52 0.42 0.46 0.53 0.58 0.64 0.68 0.68 0.71 0.74 0.64 0.60 0.70 0.85 0.91 0.87 0.85 0.89 0.72 0.69 0.55 0.62 0.59 0.51 0.45 0.43 0.44 0.49 0.53 0.48 0.38 0.38 0.46 0.48 0.46
0.71 1.01 1.35 1.54 1.53 1.52 1.45 1.20 0.85 0.72 0.73 0.78 0.85 0.78 0.77 0.78 0.79 0.88 0.69 0.58 0.80 0.95 0.95 0.91 0.81 0.84 0.80 0.78 0.70 0.64 0.65 0.61 0.43 0.36 0.34 0.32 0.34 0.31 0.31 0.33 0.34 0.38 0.49
1.12 1.58 2.05 2.38 2.53 2.49 2.16 1.58 1.18 1.04 1.03 1.03 0.91 0.76 0.75 0.79 0.82 0.97 0.81 0.78 0.93 0.94 0.86 0.84 0.94 1.08 0.98 0.94 0.92 0.76 0.62 0.51 0.41 0.33 0.26 0.20 0.22 0.28 0.35 0.38 0.31 0.31 0.47
1.28 1.87 2.55 3.14 3.29 3.02 2.36 1.80 1.51 1.25 1.02 0.88 0.66 0.52 0.54 0.61 0.66 0.83 0.74 0.75 0.93 0.92 0.82 0.88 0.95 1.02 0.89 0.93 0.92 0.66 0.50 0.37 0.33 0.27 0.20 0.16 0.14 0.12 0.20 0.32 0.41 0.34 0.39
1.57 2.09 2.71 3.14 3.19 2.87 2.43 1.93 1.56 1.17 0.94 0.73 0.60 0.56 0.52 0.52 0.58 0.73 0.65 0.73 0.83 0.77 0.72 0.75 0.80 0.82 0.69 0.94 1.00 0.57 0.29 0.22 0.17 0.14 0.16 0.14 0.09 0.10 0.13 0.21 0.30 0.37 0.38
1.64 2.04 2.29 2.13 1.86 1.68 1.60 1.49 1.21 1.13 1.13 1.06 0.96 0.80 0.65 0.65 0.66 0.67 0.67 0.68 0.69 0.68 0.60 0.57 0.66 0.66 0.54 0.77 0.86 0.71 0.38 0.20 0.10 0.05 0.08 0.09 0.11 0.15 0.15 0.17 0.24 0.32 0.33
1.41 1.54 1.48 1.20 0.93 0.88 0.89 0.84 0.94 1.08 1.17 1.20 1.20 1.09 0.97 0.92 0.90 0.86 0.81 0.74 0.67 0.67 0.62 0.57 0.60 0.62 0.52 0.53 0.69 0.84 0.60 0.31 0.22 0.11 0.13 0.19 0.26 0.31 0.24 0.23 0.27 0.33 0.36
0.95 0.83 0.70 0.60 0.50 0.46 0.45 0.46 0.51 0.69 0.94 1.14 1.32 1.34 1.32 1.23 1.11 1.00 0.88 0.73 0.61 0.57 0.58 0.53 0.53 0.58 0.59 0.50 0.51 0.62 0.65 0.62 0.55 0.26 0.12 0.17 0.34 0.40 0.36 0.31 0.34 0.38 0.40
0.50 0.42 0.37 0.37 0.36 0.35 0.35 0.40 0.39 0.36 0.41 0.44 0.54 0.66 0.81 0.92 0.89 0.76 0.69 0.63 0.54 0.48 0.46 0.50 0.56 0.60 0.59 0.54 0.51 0.52 0.58 0.68 0.68 0.56 0.30 0.28 0.35 0.34 0.33 0.34 0.39 0.47 0.53
0.26 0.24 0.29 0.34 0.38 0.38 0.38 0.39 0.37 0.36 0.42 0.43 0.44 0.46 0.46 0.48 0.49 0.47 0.46 0.45 0.43 0.42 0.41 0.42 0.48 0.53 0.55 0.57 0.60 0.62 0.66 0.69 0.71 0.79 0.66 0.57 0.52 0.44 0.44 0.52 0.59 0.72 0.80